This is the latest recevied weather packets stored in our database for station/object KE8WAY. If no packets are shown the sender has not sent any weather packets the latest 10 day(s).
| Time | Temp. | Humidity | Pressure | Rain* | Wind** | Luminosity | Snow |
|---|---|---|---|---|---|---|---|
| 1777956025 | 19.44° C | 60% | 1000.6 hPa | 0 mm | - | 0 W/m² | - |
| 1777955721 | 19.44° C | 59% | 1000.9 hPa | 0 mm | - | 0 W/m² | - |
| 1777955419 | 19.44° C | 59% | 1000.7 hPa | 0 mm | - | 0 W/m² | - |
| 1777955114 | 19.44° C | 60% | 1001 hPa | 0 mm | - | 0 W/m² | - |
| 1777954812 | 19.44° C | 62% | 1000.8 hPa | 0 mm | - | 0 W/m² | - |
| 1777954508 | 19.44° C | 58% | 1000.9 hPa | 0 mm | - | 0 W/m² | - |
| 1777954206 | 19.44° C | 59% | 1000.9 hPa | 0 mm | - | 0 W/m² | - |
| 1777953903 | 19.44° C | 58% | 1000.8 hPa | 0 mm | - | 0 W/m² | - |
| 1777953600 | 20° C | 57% | 1000.9 hPa | 0 mm | - | 0 W/m² | - |
| 1777953296 | 19.44° C | 57% | 1000.9 hPa | 0 mm | - | 0 W/m² | - |
| 1777952993 | 19.44° C | 59% | 1001 hPa | 0 mm | - | 0 W/m² | - |
| 1777952689 | 19.44° C | 58% | 1000.9 hPa | 0 mm | - | 0 W/m² | - |
| 1777952387 | 19.44° C | 58% | 1001 hPa | 0 mm | - | 0 W/m² | - |
| 1777952083 | 19.44° C | 58% | 1001.1 hPa | 0 mm | - | 0 W/m² | - |
| 1777951782 | 19.44° C | 59% | 1001.1 hPa | 0 mm | - | 0 W/m² | - |
| 1777951479 | 20° C | 57% | 1001 hPa | 0 mm | - | 0 W/m² | - |
| 1777951175 | 20° C | 57% | 1001.3 hPa | 0 mm | - | 0 W/m² | - |
| 1777950872 | 20° C | 56% | 1001.3 hPa | 0 mm | - | 0 W/m² | - |
| 1777950569 | 20° C | 56% | 1001.4 hPa | 0 mm | - | 0 W/m² | - |
| 1777950265 | 20° C | 56% | 1001.4 hPa | 0 mm | - | 0 W/m² | - |
| 1777949960 | 20° C | 55% | 1001.6 hPa | 0 mm | - | 0 W/m² | - |
| 1777949658 | 20° C | 56% | 1001.5 hPa | 0 mm | - | 0 W/m² | - |
| 1777949357 | 20° C | 55% | 1001.5 hPa | 0 mm | - | 0 W/m² | - |
| 1777949054 | 20.56° C | 55% | 1001.4 hPa | 0 mm | - | 0 W/m² | - |
| 1777948751 | 20° C | 53% | 1001.8 hPa | 0 mm | - | 0 W/m² | - |
* Rain latest hour (hover to see other rain measurements)
** Current wind speed in m/s (hover to see current wind gust speed)